sat.trackr.live / text

‹ back to catalog

CUBY-4

NORAD 69874 · 2026-156F

PAYLOAD ACTIVE UNKNOWN

§ Identity

Operator
Country
GER
Launch date
2026-07-07
Launch site
AFWTR
Launch vehicle
Mass (kg)
RCS (m²)

External: N2YO · Heavens-Above · Gunter

§ Orbital elements

Epoch: 2026-09-19T23:21:30.413952Z

Period
96.58 min
Inclination
97.7437°
Eccentricity
0.0001754
Mean motion
14.90977526 rev/d
Perigee alt
593.7 km
Apogee alt
596.1 km
Semi-major
6,973.0 km
B*
3.8836e-5
RAAN
162.0629°
Arg perigee
222.8669°
Mean anomaly
137.2413°
Rev number
1,112

§ Raw data

CUBY-41 69874U 26156F   26262.97326868  .00000329  00000+0  38836-4 0  99962 69874  97.7437 162.0629 0001754 222.8669 137.2413 14.90977526 11127

JSON: /api/v1/satellites/69874 · /tle

For live sub-satellite position, see the globe view (requires WebGL).

§ Visibility from observer

Set your observer location to see the next 7 days of passes ≥ 10°. The values pass through the URL so the page stays shareable.

No JS? Fill the form by hand. The geolocation button needs JavaScript.